Regional Weather Roundup
Issued by NWS Northern Indiana

Home | Current Version | Previous Version | Text Only | Print | Product List | Glossary Off
Versions: 1 2 3 4 5 6 7 8 9 10 11 12 13 14 15 16 17 18 19 20 21 22 23 24 25 26 27 28 29 30 31 32 33 34 35 36 37 38 39 40 41 42 43 44 45 46 47 48 49 50

000
ASUS43 KIWX 012200
RWRIWX

KIWX WEATHER ROUNDUP
NATIONAL WEATHER SERVICE NORTHERN INDIANA
600 PM EDT FRI AUG 01 2014

NOTE: "FAIR" INDICATES FEW OR NO CLOUDS BELOW 12,000 FEET WITH NO
SIGNIFICANT WEATHER AND/OR OBSTRUCTIONS TO VISIBILITY.

* THESE STATIONS ARE NOT UNDER NWS QUALITY CONTROL. THEY ALSO MAY NOT
  REPORT WEATHER SUCH AS PRECIPITATION OR FOG.

INZ001>027-012300-
NORTHERN INDIANA

CITY           SKY/WX    TMP DP  RH WIND       PRES   REMARKS
GARY*          PTSUNNY   77  57  50 SE9       30.07F
SOUTH BEND     NOT AVBL
ANGOLA*        SUNNY     77  61  57 SW3       30.09S
FORT WAYNE     NOT AVBL

$$
INZ028>050-012300-
CENTRAL INDIANA

CITY           SKY/WX    TMP DP  RH WIND       PRES   REMARKS
INDIANAPOLIS   CLOUDY    72  61  68 NW12      30.07R THUNDER

$$
MIZ043>046-050>051-056>058-064>065-071>073-077>080-012300-
SOUTHWEST LOWER MICHIGAN

CITY           SKY/WX    TMP DP  RH WIND       PRES   REMARKS
BATTLE CREEK   CLOUDY    74  60  61 W10       30.09S
BENTON HARBOR  PTSUNNY   77  59  53 SW8       30.07F
HOLLAND        MOSUNNY   80  61  52 SW9       30.09S
KALAMAZOO      LGT RAIN  68  58  70 N9        30.09F

$$
OHZ001>008-015>018-024>025-012300-
NORTHWEST OHIO

CITY           SKY/WX    TMP DP  RH WIND       PRES   REMARKS
TOLEDO EXPRESS MOSUNNY   80  59  48 N5        30.07S
LIMA           MOSUNNY   82  57  42 VRB3      30.07F

$$
&&


USA.gov is the U.S. government's official web portal to all federal, state and local government web resources and services.